Regional Weather Roundup
Issued by NWS

Home | Current Version | Previous Version | Text Only | Print | Product List | Glossary On
Versions: 1 2 3 4 5 6 7 8 9 10 11 12 13 14 15 16 17 18 19 20 21 22 23 24 25 26 27 28 29 30 31 32 33 34 35 36 37 38 39 40 41 42 43 44 45 46 47 48 49 50
931
ASUS44 KFWD 251910
RWRTX
NORTH TEXAS HOURLY WEATHER ROUNDUP
NATIONAL WEATHER SERVICE FORT WORTH TX
200 PM CDT TUE JUL 25 2017

NOTE: "FAIR" INDICATES FEW OR NO CLOUDS BELOW 12,000 FEET WITH NO
SIGNIFICANT WEATHER AND/OR OBSTRUCTIONS TO VISIBILITY.

TXZ118-119-252000-
DALLAS/FORT WORTH METROPLEX

CITY           SKY/WX    TMP DP  RH WIND       PRES   REMARKS
DFW AIRPORT    MOSUNNY   93  74  53 S14       30.04F HX 103
DALLAS LOVE    MOSUNNY   93  73  52 S9        30.05F HX 102
FTW MEACHAM    MOSUNNY   94  75  54 SE10      30.05F HX 105
DAL-EXECUTIVE  MOSUNNY   92  73  53 VRB7      30.06F HX 100
FTW-ALLIANCE   MOSUNNY   93  76  57 S9        30.05F HX 105
FTW-NAS-JRB    MOSUNNY   93  73  52 VRB5      30.05F HX 102
FTW-SPINKS     MOSUNNY   93  72  49 S10       30.08F HX 100
ARLINGTON      MOSUNNY   93  75  55 S10       30.06F HX 104
GRAND PRAIRIE  SUNNY     91  72  52 SE9       30.07F HX  98
ADDISON        MOSUNNY   91  72  52 S10       30.07F HX  98
MESQUITE       MOSUNNY   91  72  52 SE8       30.07F HX  98
LANCASTER      MOSUNNY   92  72  51 S7        30.07F HX 100
$$

TXZ091>094-102>105-117-120-121-131>134-252000-
NORTH CENTRAL TEXAS

CITY           SKY/WX    TMP DP  RH WIND       PRES   REMARKS
SHRMAN/DENISON MOSUNNY   91  75  57 S9        30.07F HX 102
GAINESVILLE    MOSUNNY   91  75  60 SE9       30.07F HX 102
BOWIE          SUNNY     92  74  55 SE3       30.06S HX 103
BRIDGEPORT     SUNNY     94  71  47 SE6       30.06F HX 100
DECATUR        SUNNY     91  74  57 SE8         N/A  HX 100
DENTON         SUNNY     92  76  59 S13       30.05F HX 104
MCKINNEY       MOSUNNY   91  78  65 S14       30.06F HX 106
BONHAM         MOSUNNY   90  75  62 SE9       30.07F HX 100
GREENVILLE     PTSUNNY   91  73  55 S8        30.09S HX 100
ROCKWALL       MOSUNNY   90  75  60 SW10G22   30.08S HX 100
TERRELL        MOSUNNY   92  73  53 S9        30.08F HX 100
WAXAHACHIE     MOSUNNY   93  73  52 S12       30.08F HX 101
CLEBURNE       SUNNY     93  73  52 S12G17    30.08F HX 102
GRANBURY       MOSUNNY   96  70  42 S9        30.06F HX 102
$$

TXZ083>090-098>101-113>116-127>130-139>142-154-155-252000-
WESTERN NORTH TEXAS

CITY           SKY/WX    TMP DP  RH WIND       PRES   REMARKS
WICHITA FALLS  MOSUNNY   95  68  41 S10       30.02F HX  99
WF-KICKAPOO    SUNNY     96  69  41 S10       30.05F HX 100
VERNON         SUNNY     96  60  30 SE8       30.03F HX  96
ABILENE        MOSUNNY   93  66  40 VRB7G21   30.07F HX  96
ABILENE-DYESS  MOSUNNY   96  67  37 S6G21     30.05F HX 100
GRAHAM         MOSUNNY   98  66  35 S8        30.02F HX 102
BRECKENRIDGE   MOSUNNY   97  64  32 S8G17     30.05S HAZE    HX  99
CISCO          SUNNY     93  68  43 S8G15     30.09F HX  97
EASTLAND       SUNNY     94  67  40 S10G18    30.07F HX  98
RANGER         SUNNY     92  68  45 S9        30.08F HX  96
MINERAL WELLS  SUNNY     95  69  42 S9G17     30.04F HX 100
STEPHENVILLE   SUNNY     92  68  45 S8        30.10F HX  96
COMANCHE       SUNNY     94  70  46 SE8       30.08F HX 100
BROWNWOOD      LGT RAIN  95  66  38 SE6G16    30.08S HX  98
COLEMAN        MOSUNNY   93  65  39 S13       30.08F HX  95
$$

TXZ143>147-156>162-174-175-252000-
CENTRAL TEXAS

CITY           SKY/WX    TMP DP  RH WIND       PRES   REMARKS
WACO           SUNNY     97  70  41 S16       30.06F HX 103
WACO-TSTC      MOSUNNY   93  72  49 S12G20    30.07F HX 100
WACO-MCGREGOR  MOSUNNY   95  71  45 S12G20    30.07F HX 102
HILLSBORO      MOSUNNY   93  73  51 S13G21    30.08S HX 102
CORSICANA      MOSUNNY   92  72  51 S12G21    30.09F HX  99
MEXIA          MOSUNNY   91  72  53 S13G20    30.08F HX  98
HEARNE         MOSUNNY   94  70  46 SE7       30.08F HX 100
CAMERON        MOSUNNY   95  71  44 S14       30.07F HX 102
TEMPLE         MOSUNNY   95  72  47 S16G22    30.07F HX 103
KILLEEN        PTSUNNY   93  69  44 S8G18     30.07F HX  97
KILLEEN-SKYLRK MOSUNNY   94  72  48 S13       30.08F HX 102
FORT HOOD      MOSUNNY   92  71  50 SE14      30.05F HX  98
HAMILTON       MOSUNNY   94  68  42 S9        30.10S HX  99
LAMPASAS       MOSUNNY   92  71  50 S7        30.08F HX  98
$$

TXZ095>097-106>112-122>126-135>138-148>153-164>167-252000-
EAST TEXAS

CITY           SKY/WX    TMP DP  RH WIND       PRES   REMARKS
PARIS            N/A     91  76  61 S9        30.09  HX 103
SULPHUR SPRNGS CLOUDY    91  74  57 S10       30.11S HX  99
MOUNT PLEASANT MOSUNNY   92  71  49 S9        30.10F HX  99
GILMER         PTSUNNY   89  72  57 SW6       30.10F HX  96
MINEOLA        PTSUNNY   90  73  58 S6        30.09F HX  98
TYLER          MOSUNNY   92  70  48 S8        30.10F HX  97
LONGVIEW       MOSUNNY   92  73  53 SW7       30.09F HX 100
MARSHALL         N/A     92  67  44 SW7       30.11F HX  95
ATHENS         MOSUNNY   90  68  48 S8        30.08F HX  93
PALESTINE      SUNNY     91  72  53 SW6G16    30.11F HX  99
JACKSONVILLE   SUNNY     89  72  57 S7        30.14F HX  96
HENDERSON      SUNNY     93  68  44 SW6       30.12S HX  96
CENTER         HAZE      93  72  50 S5        30.12F VSB 3/4 HX 100
NACOGDOCHES    MOSUNNY   91  73  55 S9        30.09F HX 100
LUFKIN         MOSUNNY   90  73  57 S8        30.11F HX  98
$$

SUPPLEMENTAL OBSERVATIONS (NWS FORT WORTH AREA)

CITY           SKY/WX    TMP DP  RH WIND       PRES   REMARKS
CADDO GRASSLND   N/A     91  73  55 S6          N/A  HX 100
PAT MAYSE LAKE   N/A     88  75  66 SE8         N/A  HX  97
GREENVILLE       N/A     91  75  59 S7          N/A  HX 102
CEDAR HILL       N/A     93  72  49 S7G16       N/A  HX 100
LBJ GRASSLAND    N/A     93  75  55 SE9         N/A  HX 104
MCGREGOR         N/A     95  70  43 S14         N/A  HX 101
$$

SUPPLEMENTAL OBSERVATIONS (NWS NORMAN AREA)

CITY           SKY/WX    TMP DP  RH WIND       PRES   REMARKS
GOODLETT         N/A    101  58  24 S12       30.02F HX 100
ODELL            N/A     94  71  46 S9        30.04F HX 101
CROWELL          N/A    100  63  29 S9        30.03F HX 102
KNOX CITY        N/A     99  61  28 S8        30.04F HX  99
SEYMOUR          N/A     99  63  30 E7G14     30.03F HX 101
MILLERS CREEK    N/A     99  68  36 SE7         N/A  HX 104
$$

SUPPLEMENTAL OBSERVATIONS (NWS SAN ANGELO AREA)

CITY           SKY/WX    TMP DP  RH WIND       PRES   REMARKS
WEINERT          N/A     98  66  35 S14       30.05F HX 102
HASKELL          N/A     96  58  28 SE12      30.05F HX  95
THROCKMORTON     N/A     99  66  34 S7        30.05F HX 102
STAMFORD         N/A     96  65  36 SW3       30.05F HX  99
CLYDE            N/A     94  68  41 SE8       30.10F HX  98
HAMBY            N/A     95  63  34 S13         N/A  HX  96
IVIE RESERVOIR   N/A     97  64  34 S12         N/A  HX  99
COLORADO BEND    N/A     93  66  40 S12         N/A  HX  96
$$

SUPPLEMENTAL OBSERVATIONS (NWS SHREVEPORT AREA)

CITY           SKY/WX    TMP DP  RH WIND       PRES   REMARKS
TEXARKANA        N/A     91  73  55 SW3         N/A  HX 100
LINDEN           N/A     93  68  43 W5          N/A  HX  97
GILMER           N/A     93  72  49 SW6G14      N/A  HX 100
HENDERSON        N/A     93  70  46 SW7         N/A  HX  99
LUFKIN           N/A     91  73  55 MISG        N/A  HX 100
N SABINE NF      N/A     95  77  55 MISG        N/A  HX 109
S SABINE NF      N/A     93  75  55 S2          N/A  HX 104
$$

SUPPLEMENTAL OBSERVATIONS ARE A COLLECTION OF AUTOMATED INSTRUMENTS
THAT ARE MAINTAINED BY A VARIETY OF FEDERAL AND STATE AGENCIES.
CERTAIN ELEMENTS...SUCH AS HUMIDITY VALUES AND SUSTAINED WIND
SPEEDS...MAY BE APPROXIMATED.





USA.gov is the U.S. government's official web portal to all federal, state and local government web resources and services.